Location: Koussan�
(15.2012°N, 12.5548°W)
Time: 18:34:40
(UTC+00:00)

Cosmos 1602 Rocket - Pass Details

Date: 20 October 2020
Orbit: 603 x 633 km, 82.5° (Epoch: 01 December)

Event Time Altitude Azimuth Distance (km) Brightness Sun altitude
Rises 18:49:19 0° 1° (N) 2,917 6.9 -6.2°
Reaches altitude 10° 18:51:35 10° 4° (N) 2,007 6.0 -6.8°
Maximum altitude 18:56:00 61° 85° (E) 710 3.6 -7.8°
Drops below altitude 10° 19:00:21 10° 166° (SSE) 1,990 6.1 -8.8°
Sets 19:02:35 0° 169° (S) 2,891 7.0 -9.4°
